Regional Weather Roundup
Issued by NWS Sioux Falls, SD

Home | Current Version | Previous Version | Graphics & Text | Print | Product List | Glossary Off
Versions: 1 2 3 4 5 6 7 8 9 10 11 12 13 14 15 16 17 18 19 20 21 22 23 24 25 26 27 28 29 30 31 32 33 34 35 36 37 38 39 40 41 42 43 44 45 46 47 48 49 50

000
ASUS43 KFSD 021910
RWRFSD

WEATHER ROUNDUP FOR SE SOUTH DAKOTA/SW MINNESOTA/NW IOWA
NATIONAL WEATHER SERVICE SIOUX FALLS SD
200 PM CDT SUN AUG 02 2015

NOTE: "FAIR" INDICATES FEW OR NO CLOUDS BELOW 12,000 FEET WITH NO
SIGNIFICANT WEATHER AND OR OBSTRUCTIONS TO VISIBILITY.


SDZ038>040-050-052>070-022000-
SOUTHEAST SOUTH DAKOTA

CITY           SKY/WX    TMP DP  RH WIND       PRES   REMARKS
BROOKINGS      SUNNY     81  59  47 N16G26    29.86R
CHAMBERLAIN    SUNNY     83  60  46 NE12      29.89S
HURON          SUNNY     82  58  43 N16       29.86S
MADISON        FAIR      81  63  54 N15G24    29.87R
MITCHELL       SUNNY     84  64  50 N16       29.86S
SIOUX FALLS    MOSUNNY   85  66  53 N9        29.83R
WINNER         FAIR      89  59  36 NE14      29.90S
YANKTON        SUNNY     84  64  51 N9G17     29.82R
$$

MNZ071-072-080-081-089-090-097-098-022000-
SOUTHWEST MINNESOTA

CITY           SKY/WX    TMP DP  RH WIND       PRES   REMARKS
FAIRMONT       SUNNY     86  63  45 NW15G24   29.76R
JACKSON        SUNNY     86  64  48 NW17G23   29.80R
LUVERNE        SUNNY     86  66  51 N8        29.83R
MARSHALL       SUNNY     81  61  50 N17G24    29.82S
MONTEVIDEO     SUNNY     82  63  51 N15G21    29.82R
PIPESTONE      SUNNY     82  63  51 N12G20    29.85R
REDWOOD FALLS  SUNNY     85  62  46 NW14G25   29.76R
TRACY          SUNNY     81  66  61 N15       29.82R
WINDOM         SUNNY     82  66  57 NW14G21   29.80R
WORTHINGTON    SUNNY     84  64  51 N16       29.82R
$$

IAZ001>003-012>014-020>022-031-032-NEZ013-014-SDZ071-022000-
NORTHWEST IOWA

CITY           SKY/WX    TMP DP  RH WIND       PRES   REMARKS
CHEROKEE       SUNNY     85  73  69 NW9       29.81R
DENISON        SUNNY     86  75  70 SW9       29.77F HX  95
ESTHERVILLE    SUNNY     84  67  56 NW14G22   29.78R
LE MARS        SUNNY     84  72  65 VRB5G12   29.82S
ORANGE CITY    SUNNY     82  68  61 NW7       29.82S
SHELDON        SUNNY     82  70  65 NW12      29.81R
SIOUX CITY     NOT AVBL
SPENCER        SUNNY     88  65  46 NW10      29.80R
STORM LAKE     SUNNY     84  73  70 NW10G17   29.82R
$$

ABBREVIATIONS USED IN REMARKS
   TC - TEMPERATURE IN CELSIUS
  WCI - WIND CHILL INDEX
   HX - HEAT INDEX
  VSB - VISIBILITY



USA.gov is the U.S. government's official web portal to all federal, state and local government web resources and services.